{"data":{"norad_id":45136,"intl_designator":"2020-008F","name":"ONEWEB-0023","alt_names":[],"object_type":"PAYLOAD","status":"ACTIVE","operator":null,"country":"UK","launch_date":"2020-02-06","launch_site_code":"TYMSC","launch_vehicle":null,"mission":null,"orbit_class":"UNKNOWN","rcs_meters":null,"size_class":null,"mass_kg":null,"dimensions":null,"purposes":["comms"],"wikipedia_slug":null,"has_3d_model":false,"image_url":null,"decayed_at":null,"tle_current":{"epoch":"2026-05-25T03:57:09.196992Z","epoch_age_seconds":74897,"freshness":"FRESH","line1":"1 45136U 20008F   26145.16468978  .00000588  00000+0  16477-2 0  9993","line2":"2 45136  87.8856  40.8473 0001971  81.4281 278.7069 13.10372646305067","mean_motion":13.10372646,"eccentricity":0.0001971,"inclination_deg":87.8856,"raan_deg":40.8473,"arg_perigee_deg":81.4281,"mean_anomaly_deg":278.7069,"bstar":0.0016477,"rev_number":30506,"period_min":109.89240384372,"perigee_km":1220.2198805672,"apogee_km":1223.2157433341,"semimajor_km":7599.8548119506,"source":"CELESTRAK","updated_at":"2026-05-25T13:38:22.333865Z"}}}